Skip Page Navigation
NASA JPL Caltech
NASA Logo - Jet Propulsion Laboratory + View the NASA Portal
+ Near-Earth Object (NEO) Program
Search JPL
JPL Home Earth Solar System Stars & Galaxies Technology
JPL Solar System Dynamics
BODIES ORBITS EPHEMERIDES TOOLS PHYSICAL DATA DISCOVERY FAQ SITE MAP
JPL Small-Body Database Browser
Search: [ help ]  
9442 (1997 GQ27)
Classification: Main-belt Asteroid          SPK-ID: 2009442
Ephemeris | Orbit Diagram | Orbital Elements | Physical Parameters | Discovery Circumstances ]

[ show orbit diagram ]
Orbital Elements at Epoch 2457000.5 (2014-Dec-09.0) TDB
Reference: JPL 11 (heliocentric ecliptic J2000)
 Element Value Uncertainty (1-sigma)   Units 
e .1886628972368499 7.5275e-08  
a 2.593000984823612 2.3593e-08 AU
q 2.103797906488785 1.9947e-07 AU
i 14.12635255633733 6.4391e-06 deg
node 112.8345508950332 3.1353e-05 deg
peri 270.7461185071808 3.5093e-05 deg
M 275.5359153232799 1.7687e-05 deg
tp 2457358.326111282862
(2015-Dec-01.82611128)
7.646e-05 JED
period 1525.114497539035
4.18
2.0815e-05
5.699e-08
d
yr
n .2360478512143878 3.2216e-09 deg/d
Q 3.082204063158439 2.8044e-08 AU
  Orbit Determination Parameters
   # obs. used (total)      965  
   data-arc span      8680 days (23.76 yr)  
   first obs. used      1990-09-26  
   last obs. used      2014-07-02  
   planetary ephem.      DE431  
   SB-pert. ephem.      SB431-BIG16  
   condition code      0  
   fit RMS      .51018  
   data source      ORB  
   producer      Otto Matic  
   solution date      2014-Oct-09 14:15:17  

Additional Information
 Earth MOID = 1.16292 AU 
 T_jup = 3.351 
[ show covariance matrix ]

Ephemeris | Orbit Diagram | Orbital Elements | Physical Parameters | Discovery Circumstances ]

Physical Parameter Table
Parameter Symbol Value Units Sigma Reference Notes
absolute magnitude H 12.6 mag n/a MPO263433  

9442 (1997 GQ27)          Discovered 1997-Apr-02 by Beijing Schmidt CCD Asteroid Program at Xinglong (327)
Reference: 19981005/Numbers.arcLast Updated: 2004-04-19

Alternate Designations
 1997 GQ27 = 1990 SA21 = 1995 YU25 
Ephemeris | Orbit Diagram | Orbital Elements | Physical Parameters | Discovery Circumstances ]
ABOUT SSD CREDITS/AWARDS PRIVACY/COPYRIGHT GLOSSARY LINKS
FirstGov 2014-Oct-23 04:31 UT
(server date/time)  
NASA Home Page
Site Manager:   Donald K. Yeomans
Webmaster  Alan B. Chamberlin